PRAETORIAN SDA_501

导读

PRAETORIAN SDA_501(NORAD编号100059)是美国太空发展局(SDA)PRAETORIAN卫星星座的组成卫星,隶属于美军国防航天架构体系,于2025年上半年发射升空,运行于近地轨道,轨道高度约950公里、倾角约81度。 该系列卫星采用低成本模块化设计,具备高保密性和强抗干扰能力,主要承担美军全球作战的高速数据中继、高超声速导弹预警跟踪任务,通过星间激光通信链路实现组网信息的快速传输,为美军全球态势感知和作战响应提供天基支撑,当前处于正常在轨运行状态。

基本信息
目录编号:
100059
目录名称:
PRAETORIAN SDA_501
国际标识:
2026-163A
轨道中心:
EARTH
卫星名称:
PRAETORIAN SDA_501
卫星全名:
PRAETORIAN SDA_501
卫星状态:
在轨 (已飞行60 天)
发射日期:
2026-07-16 UTC
国别 :
美国 (US)
星等 :
--
该卫星已列入 空间交会检测服务 Space Conjunction Data Service (SCDS) ,当前飞行风险评估等级: 无高风险
轨道信息
数据来源 国际轨道数据 AOE轨道数据
星历时间 2026-09-14T07:20:12+0800
9小时前
查看轨道信息
2026-09-11T01:00:00+0800
3天前
查看轨道信息
半长轴 7322.609km 7322.607km
偏心率 0.0014123 0.00142
轨道倾角 81.478° 81.479°
近地点辐角 56.048° 64.517°
升交点赤经 255.926° 258.897°
平近点角 304.202° 224.409°
近地点 934.13km 934.071km
远地点 954.814km 954.869km
周期 103.934分钟 103.934分钟
每日圈数 13.85492 13.854926
详细信息
使用方式:
暂无
2D轨道图
3D轨道图
轨道高度分析图
轨道倾角分析图
轨道综合分析图
查看轨道综合分析图
与全量物体交会距离演化趋势 订阅飞行安全评估服务
与全量物体交会风险概率演化趋势 订阅飞行安全评估服务